Location: Argonnex
(45.9500°N, 6.1333°E)
Time: 21:32:58
(UTC+00:00)

Kosmos-1550 - Visible Passes

Search period start: 27 February 2024 00:00
Search period end: 08 March 2024 00:00
Orbit: 970 x 1008 km, 83.0° (Epoch: 26 February)

Date Brightness Start Highest point End Pass type
(mag) Time Alt. Az. Time Alt. Az. Time Alt. Az.
27 Feb 8.4 20:50:30 10° NNE 20:50:30 10° NNE 20:50:36 10° NNE visible
27 Feb 8.6 22:35:26 13° NNW 22:35:26 13° NNW 22:36:07 10° N visible
28 Feb 8.3 21:19:25 15° N 21:19:25 15° N 21:20:21 10° N visible
28 Feb 8.7 23:04:20 11° NNW 23:04:20 11° NNW 23:04:46 10° NNW visible
29 Feb 8.2 21:48:17 18° N 21:48:17 18° N 21:49:46 10° N visible
01 Mar 8.0 20:32:11 16° NNE 20:32:11 16° NNE 20:33:28 10° NNE visible
01 Mar 8.3 22:17:06 18° NNW 22:17:06 18° NNW 22:18:53 10° N visible
02 Mar 7.7 21:00:57 23° N 21:00:57 23° N 21:03:10 10° N visible
02 Mar 8.5 22:45:51 14° NW 22:45:51 14° NW 22:47:28 10° NNW visible
03 Mar 7.8 19:44:44 16° NE 19:44:44 16° NE 19:46:16 10° NNE visible
03 Mar 7.7 21:29:38 28° NNW 21:29:38 28° NNW 21:32:34 10° N visible
04 Mar 7.3 20:13:20 28° NNE 20:13:20 28° NNE 20:16:19 10° NNE visible
04 Mar 7.9 21:58:14 25° NW 21:58:14 25° NW 22:01:39 10° N visible
05 Mar 7.7 18:56:56 13° ENE 18:56:56 13° ENE 18:58:21 10° NE visible
05 Mar 6.8 20:41:50 44° N 20:41:50 44° N 20:46:00 10° N visible
05 Mar 8.4 22:26:43 17° WNW 22:26:43 17° WNW 22:30:08 10° NNW visible
06 Mar 7.0 19:25:17 26° ENE 19:25:17 26° ENE 19:29:09 10° NNE visible
06 Mar 6.9 21:10:10 46° NW 21:10:10 46° NW 21:15:22 10° N visible
07 Mar 6.1 19:53:24 52° ENE 19:53:24 52° ENE 19:59:10 10° NNE visible
07 Mar 7.7 21:38:16 27° W 21:39:00 28° WNW 21:44:23 10° N visible
